Regional Weather Roundup
Issued by NWS

Home | Current Version | Previous Version | Text Only | Print | Product List | Glossary On
Versions: 1 2 3 4 5 6 7 8 9 10 11 12 13 14 15 16 17 18 19 20 21 22 23 24 25 26 27 28 29 30 31 32 33 34 35 36 37 38 39 40 41 42 43 44 45 46 47 48 49 50
000
ASPQ40 PGUM 111112
RWRPQ
WEATHER ROUNDUP FOR THE MARIANAS AND MICRONESIA
NATIONAL WEATHER SERVICE TIYAN GU
900 PM CHST SUN DEC 11 2016

GUZ001>004-111200-
MARIANA ISLANDS-

CITY           SKY/WX    TMP DP  RH WIND       PRES   REMARKS
GUAM AIRPORT   PTCLDY    82  75  78 NE7       29.85R
ANDERSEN AFB   MOCLDY    81  75  83 E12       29.86S
ROTA AIRPORT   NOT AVBL
TINIAN AP      NOT AVBL
SAIPAN AP      MOCLDY    79  73  83 E9        29.85R

$$

PMZ161-111200-
REPUBLIC OF PALAU-

CITY           SKY/WX    TMP DP  RH WIND       PRES   REMARKS
KOROR AP       MOCLDY    79  77  94 N5        29.78R
KOROR WSO      MOCLDY    82  75  78 CALM      29.78R

$$

PMZ171>174-111200-
FEDERATED STATES OF MICRONESIA-

CITY           SKY/WX    TMP DP  RH WIND       PRES   REMARKS
YAP AIRPORT    PTCLDY    81  75  83 VRB5      29.80R
CHUUK AP       MOCLDY    84  79  84 VRB3      29.80R HX  96
POHNPEI AP     CLOUDY    82  77  83 E8        29.79R HX  91
POHNPEI WSO    CLOUDY    82  75  78 E8        29.84S
KOSRAE AP      NOT AVBL

$$

PMZ181-111200-
REPUBLIC OF THE MARSHALL ISLANDS-

CITY           SKY/WX    TMP DP  RH WIND       PRES   REMARKS
KWAJALEIN AP   CLEAR     81  75  83 E16       29.84S
MAJURO AP      NOT AVBL
MAJURO WSO     CLOUDY    82  77  83 NE15      29.80S HX  91

$$




USA.gov is the U.S. government's official web portal to all federal, state and local government web resources and services.